Weather History for KYKM - April, 2013

Change the Weather History Date:

Thursday, April 4, 2013

  Actual Average Record
Temperature  
Mean Temperature 56 °F 47 °F  
Max Temperature 60 °F 61 °F 78 °F (1960)
Min Temperature 51 °F 33 °F 21 °F (2003)
Degree Days  
Heating Degree Days 9 18  
Month to date heating degree days 35 72  
Since 1 July heating degree days 4593 5276  
Cooling Degree Days 0 0  
Month to date cooling degree days 0 0  
Year to date cooling degree days 0 0  
Growing Degree Days 6 (Base 50)    
Moisture  
Dew Point 45 °F    
Average Humidity 66    
Maximum Humidity 77    
Minimum Humidity 55    
Precipitation  
Precipitation 0.10 in 0.01 in 0.17 in (1948)
Month to date precipitation 0.10 0.06  
Year to date precipitation 1.00 2.60  
Snow  
Snow 0.00 in 0.00 in T in (2003)
Month to date snowfall 0.0 0.0  
Year to date snowfall 1.1 8.6  
Since 1 July snowfall 15.3 21.6  
Snow Depth 0.00 in    
Sea Level Pressure  
Sea Level Pressure 29.80 in    
Wind  
Wind Speed 6 mph (SW)    
Max Wind Speed 20 mph    
Max Gust Speed 30 mph    
Visibility 10 miles    
Events Rain    
T = Trace of Precipitation, MM = Missing Value Source: NWS Daily Summary

Daily Weather History Graph

Daily Weather History Graph

Search for Another Location

Airport or City:

Trip Planner

Search our weather history database for the weather conditions in past years. The results will help you decide how hot, cold, wet, or windy it might be!

Date:

Astronomy

Apr. 04, 2013 Rise Set
Actual Time 6:35 AM PDT 7:35 PM PDT
Civil Twilight 6:04 AM PDT 8:06 PM PDT
Nautical Twilight 5:27 AM PDT 8:43 PM PDT
Astronomical Twilight 4:48 AM PDT 9:22 PM PDT
Moon 3:25 AM PDT (4/4) 1:40 PM PDT (4/4)
Length of Visible Light 14h 02m
Length of Day
13h 00m
Waning Crescent, 32% of the Moon is Illuminated
Apr 4
Waning Crescent
Apr 10
New
Apr 18
First Quarter
Apr 25
Full
May 2
Last Quarter

Hourly Weather History & Observations

Time (PDT) Temp. Dew Point Humidity Pressure Visibility Wind Dir Wind Speed Gust Speed Precip Events Conditions
12:53 AM 55.0 °F 39.9 °F 57% 29.94 in 10.0 mi WSW 5.8 mph - N/A   Scattered Clouds
1:53 AM 54.0 °F 39.0 °F 57% 29.93 in 10.0 mi West 5.8 mph - N/A   Partly Cloudy
2:53 AM 53.1 °F 39.9 °F 61% 29.91 in 10.0 mi West 5.8 mph - N/A   Clear
3:53 AM 52.0 °F 39.9 °F 63% 29.91 in 10.0 mi West 5.8 mph - N/A   Scattered Clouds
4:53 AM 52.0 °F 39.9 °F 63% 29.89 in 10.0 mi West 3.5 mph - N/A   Overcast
5:53 AM 53.1 °F 43.0 °F 69% 29.86 in 10.0 mi Calm Calm - 0.00 in Rain Light Rain
6:53 AM 51.1 °F 43.0 °F 74% 29.84 in 10.0 mi West 10.4 mph - 0.01 in   Overcast
7:53 AM 52.0 °F 44.1 °F 74% 29.84 in 10.0 mi WSW 6.9 mph - 0.00 in   Overcast
8:53 AM 53.1 °F 46.0 °F 77% 29.82 in 9.0 mi NNE 5.8 mph - 0.01 in Rain Light Rain
9:53 AM 54.0 °F 46.0 °F 75% 29.81 in 10.0 mi West 8.1 mph - 0.00 in Rain Light Rain
10:53 AM 55.9 °F 46.9 °F 72% 29.81 in 10.0 mi West 4.6 mph - 0.00 in Rain Light Rain
11:53 AM 55.9 °F 48.0 °F 75% 29.81 in 7.0 mi Calm Calm - 0.02 in Rain Light Rain
12:53 PM 55.0 °F 48.9 °F 80% 29.79 in 9.0 mi Calm Calm - 0.04 in Rain Light Rain
1:53 PM 55.9 °F 48.9 °F 77% 29.77 in 9.0 mi Calm Calm - 0.02 in Rain Light Rain
2:53 PM 57.9 °F 48.9 °F 72% 29.75 in 10.0 mi South 5.8 mph - 0.00 in Rain Light Rain
3:53 PM 57.9 °F 48.9 °F 72% 29.73 in 10.0 mi Calm Calm - 0.00 in   Overcast
4:53 PM 57.9 °F 48.9 °F 72% 29.72 in 10.0 mi SSE 5.8 mph - N/A   Mostly Cloudy
5:53 PM 59.0 °F 50.0 °F 72% 29.71 in 10.0 mi SSE 8.1 mph - N/A   Mostly Cloudy
6:53 PM 59.0 °F 48.9 °F 69% 29.70 in 10.0 mi South 13.8 mph 21.9 mph N/A   Mostly Cloudy
7:53 PM 59.0 °F 46.0 °F 62% 29.70 in 10.0 mi SSW 13.8 mph - N/A   Mostly Cloudy
8:53 PM 57.9 °F 44.1 °F 60% 29.72 in 10.0 mi South 15.0 mph - N/A   Clear
9:53 PM 57.0 °F 44.1 °F 62% 29.74 in 10.0 mi South 15.0 mph - N/A   Clear
10:53 PM 55.9 °F 43.0 °F 62% 29.76 in 10.0 mi Calm Calm - N/A   Clear
11:53 PM 55.9 °F 42.1 °F 60% 29.76 in 10.0 mi West 4.6 mph - N/A   Clear